Year,Month,Day,Hour,Minute,Value (Times are PST for temperature in C)
2023,04,26,00,00,8.30
2023,04,26,00,01,8.30
2023,04,26,00,02,8.30
2023,04,26,00,03,8.30
2023,04,26,00,04,8.30
2023,04,26,00,05,8.30
2023,04,26,00,06,8.30
2023,04,26,00,07,8.30
2023,04,26,00,08,8.30
2023,04,26,00,09,8.30
2023,04,26,00,10,8.30
2023,04,26,00,11,8.30
2023,04,26,00,12,8.20
2023,04,26,00,13,8.20
2023,04,26,00,14,8.20
2023,04,26,00,15,8.20
2023,04,26,00,16,8.20
2023,04,26,00,17,8.20
2023,04,26,00,18,8.20
2023,04,26,00,19,8.20
2023,04,26,00,20,8.20
2023,04,26,00,21,8.20
2023,04,26,00,22,8.20
2023,04,26,00,23,8.20
2023,04,26,00,24,8.20
2023,04,26,00,25,8.20
2023,04,26,00,26,8.20
2023,04,26,00,27,8.10
2023,04,26,00,28,8.10
2023,04,26,00,29,8.10
2023,04,26,00,30,8.10
2023,04,26,00,31,8.10
2023,04,26,00,32,8.10
2023,04,26,00,33,8.10
2023,04,26,00,34,8.00
2023,04,26,00,35,8.00
2023,04,26,00,36,8.00
2023,04,26,00,37,8.00
2023,04,26,00,38,7.90
2023,04,26,00,39,7.90
2023,04,26,00,40,7.90
2023,04,26,00,41,7.90
2023,04,26,00,42,7.90
2023,04,26,00,43,7.90
2023,04,26,00,44,7.90
2023,04,26,00,45,7.90
2023,04,26,00,46,7.80
2023,04,26,00,47,7.80
2023,04,26,00,48,7.80
2023,04,26,00,49,7.80
2023,04,26,00,50,7.80
2023,04,26,00,51,7.80
2023,04,26,00,52,7.70
2023,04,26,00,53,7.70
2023,04,26,00,54,7.70
2023,04,26,00,55,7.70
2023,04,26,00,56,7.70
2023,04,26,00,57,7.70
2023,04,26,00,58,7.70
2023,04,26,00,59,7.70
2023,04,26,01,00,7.70
2023,04,26,01,01,7.60
2023,04,26,01,02,7.60
2023,04,26,01,03,7.60
2023,04,26,01,04,7.60
2023,04,26,01,05,7.60
2023,04,26,01,06,7.60
2023,04,26,01,07,7.50
2023,04,26,01,08,7.50
2023,04,26,01,09,7.50
2023,04,26,01,10,7.40
2023,04,26,01,11,7.40
2023,04,26,01,12,7.40
2023,04,26,01,13,7.40
2023,04,26,01,14,7.30
2023,04,26,01,15,7.30
2023,04,26,01,16,7.30
2023,04,26,01,17,7.30
2023,04,26,01,18,7.30
2023,04,26,01,19,7.30
2023,04,26,01,20,7.20
2023,04,26,01,21,7.20
2023,04,26,01,22,7.20
2023,04,26,01,23,7.20
2023,04,26,01,24,7.20
2023,04,26,01,25,7.20
2023,04,26,01,26,7.20
2023,04,26,01,27,7.20
2023,04,26,01,28,7.20
2023,04,26,01,29,7.20
2023,04,26,01,30,7.20
2023,04,26,01,31,7.20
2023,04,26,01,32,7.20
2023,04,26,01,33,7.20
2023,04,26,01,34,7.20
2023,04,26,01,35,7.20
2023,04,26,01,36,7.20
2023,04,26,01,37,7.10
2023,04,26,01,38,7.10
2023,04,26,01,39,7.10
2023,04,26,01,40,7.10
2023,04,26,01,41,7.10
2023,04,26,01,42,7.10
2023,04,26,01,43,7.00
2023,04,26,01,44,7.00
2023,04,26,01,45,7.00
2023,04,26,01,46,6.90
2023,04,26,01,47,6.90
2023,04,26,01,48,6.90
2023,04,26,01,49,6.90
2023,04,26,01,50,6.90
2023,04,26,01,51,6.80
2023,04,26,01,52,6.80
2023,04,26,01,53,6.80
2023,04,26,01,54,6.80
2023,04,26,01,55,6.80
2023,04,26,01,56,6.80
2023,04,26,01,57,6.80
2023,04,26,01,58,6.80
2023,04,26,01,59,6.80
2023,04,26,02,00,6.80
2023,04,26,02,01,6.80
2023,04,26,02,02,6.80
2023,04,26,02,03,6.80
2023,04,26,02,04,6.80
2023,04,26,02,05,6.80
2023,04,26,02,06,6.80
2023,04,26,02,07,6.80
2023,04,26,02,08,6.70
2023,04,26,02,09,6.70
2023,04,26,02,10,6.70
2023,04,26,02,11,6.70
2023,04,26,02,12,6.70
2023,04,26,02,13,6.70
2023,04,26,02,14,6.70
2023,04,26,02,15,6.70
2023,04,26,02,16,6.70
2023,04,26,02,17,6.70
2023,04,26,02,18,6.70
2023,04,26,02,19,6.70
2023,04,26,02,20,6.70
2023,04,26,02,21,6.80
2023,04,26,02,22,6.70
2023,04,26,02,23,6.70
2023,04,26,02,24,6.70
2023,04,26,02,25,6.70
2023,04,26,02,26,6.70
2023,04,26,02,27,6.70
2023,04,26,02,28,6.70
2023,04,26,02,29,6.60
2023,04,26,02,30,6.60
2023,04,26,02,31,6.60
2023,04,26,02,32,6.60
2023,04,26,02,33,6.60
2023,04,26,02,34,6.50
2023,04,26,02,35,6.50
2023,04,26,02,36,6.50
2023,04,26,02,37,6.50
2023,04,26,02,38,6.50
2023,04,26,02,39,6.60
2023,04,26,02,40,6.60
2023,04,26,02,41,6.60
2023,04,26,02,42,6.60
2023,04,26,02,43,6.60
2023,04,26,02,44,6.60
2023,04,26,02,45,6.60
2023,04,26,02,46,6.60
2023,04,26,02,47,6.60
2023,04,26,02,48,6.60
2023,04,26,02,49,6.60
2023,04,26,02,50,6.60
2023,04,26,02,51,6.60
2023,04,26,02,52,6.60
2023,04,26,02,53,6.60
2023,04,26,02,54,6.60
2023,04,26,02,55,6.60
2023,04,26,02,56,6.60
2023,04,26,02,57,6.60
2023,04,26,02,58,6.60
2023,04,26,02,59,6.60
2023,04,26,03,00,6.60
2023,04,26,03,01,6.60
2023,04,26,03,02,6.50
2023,04,26,03,06,6.60
2023,04,26,03,07,6.60
2023,04,26,03,08,6.70
2023,04,26,03,09,6.70
2023,04,26,03,10,6.70
2023,04,26,03,11,6.70
2023,04,26,03,12,6.70
2023,04,26,03,13,6.70
2023,04,26,03,14,6.70
2023,04,26,03,15,6.60
2023,04,26,03,16,6.60
2023,04,26,03,17,6.60
2023,04,26,03,18,6.60
2023,04,26,03,19,6.60
2023,04,26,03,20,6.70
2023,04,26,03,21,6.70
2023,04,26,03,22,6.60
2023,04,26,03,23,6.60
2023,04,26,03,24,6.70
2023,04,26,03,25,6.80
2023,04,26,03,26,6.90
2023,04,26,03,27,7.00
2023,04,26,03,28,7.00
2023,04,26,03,29,7.10
2023,04,26,03,30,7.10
2023,04,26,03,31,7.10
2023,04,26,03,32,7.10
2023,04,26,03,33,7.10
2023,04,26,03,34,7.00
2023,04,26,03,35,7.00
2023,04,26,03,36,6.90
2023,04,26,03,37,6.90
2023,04,26,03,38,6.90
2023,04,26,03,39,6.90
2023,04,26,03,40,6.90
2023,04,26,03,41,6.90
2023,04,26,03,42,7.00
2023,04,26,03,43,7.00
2023,04,26,03,44,7.00
2023,04,26,03,45,7.10
2023,04,26,03,46,7.10
2023,04,26,03,47,7.10
2023,04,26,03,48,7.10
2023,04,26,03,49,7.10
2023,04,26,03,50,7.10
2023,04,26,03,51,7.10
2023,04,26,03,52,7.10
2023,04,26,03,53,7.10
2023,04,26,03,54,7.10
2023,04,26,03,55,7.10
2023,04,26,03,56,7.10
2023,04,26,03,57,7.00
2023,04,26,03,58,7.00
2023,04,26,03,59,7.00
2023,04,26,04,00,7.00
2023,04,26,04,01,7.10
2023,04,26,04,02,7.10
2023,04,26,04,03,7.10
2023,04,26,04,04,7.10
2023,04,26,04,05,7.10
2023,04,26,04,06,7.10
2023,04,26,04,07,7.10
2023,04,26,04,08,7.10
2023,04,26,04,09,7.10
2023,04,26,04,10,7.10
2023,04,26,04,11,7.20
2023,04,26,04,12,7.20
2023,04,26,04,13,7.20
2023,04,26,04,14,7.20
2023,04,26,04,15,7.20
2023,04,26,04,16,7.20
2023,04,26,04,17,7.30
2023,04,26,04,18,7.30
2023,04,26,04,19,7.30
2023,04,26,04,20,7.30
2023,04,26,04,21,7.30
2023,04,26,04,22,7.30
2023,04,26,04,23,7.30
2023,04,26,04,24,7.30
2023,04,26,04,25,7.30
2023,04,26,04,26,7.30
2023,04,26,04,27,7.30
2023,04,26,04,28,7.40
2023,04,26,04,29,7.40
2023,04,26,04,30,7.40
2023,04,26,04,31,7.40
2023,04,26,04,32,7.40
2023,04,26,04,33,7.40
2023,04,26,04,34,7.40
2023,04,26,04,35,7.40
2023,04,26,04,36,7.50
2023,04,26,04,37,7.50
2023,04,26,04,38,7.60
2023,04,26,04,39,7.60
2023,04,26,04,40,7.60
2023,04,26,04,41,7.60
2023,04,26,04,42,7.60
2023,04,26,04,43,7.60
2023,04,26,04,44,7.60
2023,04,26,04,45,7.60
2023,04,26,04,46,7.50
2023,04,26,04,47,7.60
2023,04,26,04,48,7.50
2023,04,26,04,49,7.50
2023,04,26,04,50,7.50
2023,04,26,04,51,7.50
2023,04,26,04,52,7.50
2023,04,26,04,53,7.50
2023,04,26,04,54,7.40
2023,04,26,04,55,7.40
2023,04,26,04,56,7.40
2023,04,26,04,57,7.30
2023,04,26,04,58,7.30
2023,04,26,04,59,7.30
2023,04,26,05,00,7.20
2023,04,26,05,01,7.20
2023,04,26,05,02,7.20
2023,04,26,05,03,7.20
2023,04,26,05,04,7.20
2023,04,26,05,05,7.20
2023,04,26,05,06,7.20
2023,04,26,05,07,7.20
2023,04,26,05,08,7.20
2023,04,26,05,09,7.20
2023,04,26,05,10,7.10
2023,04,26,05,11,7.10
2023,04,26,05,12,7.10
2023,04,26,05,13,7.10
2023,04,26,05,14,7.10
2023,04,26,05,15,7.10
2023,04,26,05,16,7.10
2023,04,26,05,17,7.10
2023,04,26,05,18,7.10
2023,04,26,05,19,7.10
2023,04,26,05,20,7.20
2023,04,26,05,21,7.20
2023,04,26,05,22,7.20
2023,04,26,05,23,7.20
2023,04,26,05,24,7.30
2023,04,26,05,25,7.30
2023,04,26,05,26,7.30
2023,04,26,05,27,7.30
2023,04,26,05,28,7.30
2023,04,26,05,29,7.30
2023,04,26,05,30,7.30
2023,04,26,05,31,7.30
2023,04,26,05,32,7.30
2023,04,26,05,33,7.30
2023,04,26,05,34,7.30
2023,04,26,05,35,7.40
2023,04,26,05,36,7.40
2023,04,26,05,37,7.40
2023,04,26,05,38,7.40
2023,04,26,05,39,7.40
2023,04,26,05,40,7.40
2023,04,26,05,41,7.40
2023,04,26,05,42,7.40
2023,04,26,05,43,7.50
2023,04,26,05,44,7.50
2023,04,26,05,45,7.50
2023,04,26,05,46,7.60
2023,04,26,05,47,7.60
2023,04,26,05,48,7.60
2023,04,26,05,49,7.60
2023,04,26,05,50,7.60
2023,04,26,05,51,7.60
2023,04,26,05,52,7.60
2023,04,26,05,53,7.70
2023,04,26,05,54,7.60
2023,04,26,05,55,7.60
2023,04,26,05,56,7.60
2023,04,26,05,57,7.60
2023,04,26,05,58,7.60
2023,04,26,05,59,7.60
2023,04,26,06,00,7.60
2023,04,26,06,01,7.60
2023,04,26,06,02,7.60
2023,04,26,06,03,7.60
2023,04,26,06,04,7.60
2023,04,26,06,05,7.60
2023,04,26,06,06,7.60
2023,04,26,06,07,7.60
2023,04,26,06,08,7.70
2023,04,26,06,09,7.70
2023,04,26,06,10,7.70
2023,04,26,06,11,7.70
2023,04,26,06,12,7.70
2023,04,26,06,13,7.70
2023,04,26,06,14,7.70
2023,04,26,06,15,7.70
2023,04,26,06,16,7.80
2023,04,26,06,17,7.80
2023,04,26,06,18,7.80
2023,04,26,06,19,7.80
2023,04,26,06,20,7.80
2023,04,26,06,21,7.80
2023,04,26,06,22,7.80
2023,04,26,06,23,7.80
2023,04,26,06,24,7.80
2023,04,26,06,25,7.90
2023,04,26,06,26,7.90
2023,04,26,06,27,7.90
2023,04,26,06,28,7.90
2023,04,26,06,29,7.90
2023,04,26,06,30,7.90
2023,04,26,06,31,7.90
2023,04,26,06,32,7.90
2023,04,26,06,33,7.90
2023,04,26,06,34,7.90
2023,04,26,06,35,7.90
2023,04,26,06,36,7.90
2023,04,26,06,37,7.90
2023,04,26,06,38,7.90
2023,04,26,06,39,7.90
2023,04,26,06,40,7.90
2023,04,26,06,41,8.00
2023,04,26,06,42,8.00
2023,04,26,06,43,8.00
2023,04,26,06,44,8.00
2023,04,26,06,45,8.00
2023,04,26,06,46,8.00
2023,04,26,06,47,8.00
2023,04,26,06,48,8.00
2023,04,26,06,49,8.00
2023,04,26,06,50,8.10
2023,04,26,06,51,8.10
2023,04,26,06,52,8.10
2023,04,26,06,53,8.20
2023,04,26,06,54,8.20
2023,04,26,06,55,8.30
2023,04,26,06,56,8.30
2023,04,26,06,57,8.30
2023,04,26,06,58,8.40
2023,04,26,06,59,8.40
2023,04,26,07,00,8.40
2023,04,26,07,01,8.50
2023,04,26,07,02,8.50
2023,04,26,07,03,8.50
2023,04,26,07,04,8.60
2023,04,26,07,05,8.60
2023,04,26,07,06,8.60
2023,04,26,07,07,8.60
2023,04,26,07,08,8.60
2023,04,26,07,09,8.60
2023,04,26,07,10,8.70
2023,04,26,07,11,8.70
2023,04,26,07,12,8.70
2023,04,26,07,13,8.70
2023,04,26,07,14,8.70
2023,04,26,07,15,8.70
2023,04,26,07,16,8.70
2023,04,26,07,17,8.70
2023,04,26,07,18,8.70
2023,04,26,07,19,8.70
2023,04,26,07,20,8.70
2023,04,26,07,21,8.70
2023,04,26,07,22,8.70
2023,04,26,07,23,8.70
2023,04,26,07,24,8.70
2023,04,26,07,25,8.70
2023,04,26,07,26,8.70
2023,04,26,07,27,8.70
2023,04,26,07,28,8.70
2023,04,26,07,29,8.70
2023,04,26,07,30,8.70
2023,04,26,07,31,8.70
2023,04,26,07,32,8.70
2023,04,26,07,33,8.70
2023,04,26,07,34,8.70
2023,04,26,07,35,8.70
2023,04,26,07,36,8.70
2023,04,26,07,37,8.70
2023,04,26,07,38,8.70
2023,04,26,07,39,8.70
2023,04,26,07,40,8.70
2023,04,26,07,41,8.70
2023,04,26,07,42,8.70
2023,04,26,07,43,8.70
2023,04,26,07,44,8.70
2023,04,26,07,45,8.70
2023,04,26,07,46,8.70
2023,04,26,07,47,8.70
2023,04,26,07,48,8.70
2023,04,26,07,49,8.70
2023,04,26,07,50,8.70
2023,04,26,07,51,8.70
2023,04,26,07,52,8.70
2023,04,26,07,53,8.70
2023,04,26,07,54,8.70
2023,04,26,07,55,8.70
2023,04,26,07,56,8.70
2023,04,26,07,57,8.70
2023,04,26,07,58,8.70
2023,04,26,07,59,8.70
2023,04,26,08,00,8.70
2023,04,26,08,01,8.70
2023,04,26,08,02,8.70
2023,04,26,08,03,8.70
2023,04,26,08,04,8.70
2023,04,26,08,05,8.80
2023,04,26,08,06,8.80
2023,04,26,08,07,8.80
2023,04,26,08,08,8.80
2023,04,26,08,09,8.80
2023,04,26,08,10,8.80
2023,04,26,08,11,8.80
2023,04,26,08,12,8.90
2023,04,26,08,13,8.90
2023,04,26,08,14,8.90
2023,04,26,08,15,8.90
2023,04,26,08,16,8.90
2023,04,26,08,17,8.90
2023,04,26,08,18,8.90
2023,04,26,08,19,8.90
2023,04,26,08,20,8.90
2023,04,26,08,21,8.90
2023,04,26,08,22,8.90
2023,04,26,08,23,8.90
2023,04,26,08,24,8.90
2023,04,26,08,25,8.90
2023,04,26,08,26,8.90
2023,04,26,08,27,8.90
2023,04,26,08,28,9.00
2023,04,26,08,29,9.00
2023,04,26,08,30,9.00
2023,04,26,08,31,9.00
2023,04,26,08,32,9.00
2023,04,26,08,33,9.00
2023,04,26,08,34,9.00
2023,04,26,08,35,9.00
2023,04,26,08,36,9.00
2023,04,26,08,37,9.00
2023,04,26,08,38,8.90
2023,04,26,08,39,8.90
2023,04,26,08,40,8.90
2023,04,26,08,41,8.90
2023,04,26,08,42,8.90
2023,04,26,08,43,8.90
2023,04,26,08,44,8.90
2023,04,26,08,45,9.00
2023,04,26,08,46,9.00
2023,04,26,08,47,9.00
2023,04,26,08,48,8.90
2023,04,26,08,49,8.90
2023,04,26,08,50,8.90
2023,04,26,08,51,8.90
2023,04,26,08,52,8.90
2023,04,26,08,53,8.90
2023,04,26,08,54,8.90
2023,04,26,08,55,8.90
2023,04,26,08,56,8.90
2023,04,26,08,57,8.90
2023,04,26,08,58,8.90
2023,04,26,08,59,9.00
2023,04,26,09,00,9.00
2023,04,26,09,01,9.00
2023,04,26,09,02,9.00
2023,04,26,09,03,9.10
2023,04,26,09,04,9.10
2023,04,26,09,05,9.10
2023,04,26,09,06,9.10
2023,04,26,09,07,9.10
2023,04,26,09,08,9.20
2023,04,26,09,09,9.20
2023,04,26,09,10,9.30
2023,04,26,09,11,9.30
2023,04,26,09,12,9.40
2023,04,26,09,13,9.50
2023,04,26,09,14,9.50
2023,04,26,09,15,9.60
2023,04,26,09,16,9.60
2023,04,26,09,17,9.60
2023,04,26,09,18,9.60
2023,04,26,09,19,9.60
2023,04,26,09,20,9.60
2023,04,26,09,21,9.60
2023,04,26,09,22,9.60
2023,04,26,09,23,9.60
2023,04,26,09,24,9.60
2023,04,26,09,25,9.60
2023,04,26,09,26,9.60
2023,04,26,09,27,9.60
2023,04,26,09,28,9.50
2023,04,26,09,29,9.50
2023,04,26,09,30,9.50
2023,04,26,09,31,9.50
2023,04,26,09,32,9.50
2023,04,26,09,33,9.60
2023,04,26,09,34,9.70
2023,04,26,09,35,9.70
2023,04,26,09,36,9.80
2023,04,26,09,37,9.80
2023,04,26,09,38,9.80
2023,04,26,09,39,9.80
2023,04,26,09,40,9.80
2023,04,26,09,41,9.80
2023,04,26,09,42,9.70
2023,04,26,09,43,9.70
2023,04,26,09,44,9.80
2023,04,26,09,45,9.80
2023,04,26,09,46,9.70
2023,04,26,09,47,9.60
2023,04,26,09,48,9.70
2023,04,26,09,49,9.60
2023,04,26,09,50,9.60
2023,04,26,09,51,9.50
2023,04,26,09,52,9.50
2023,04,26,09,53,9.40
2023,04,26,09,54,9.40
2023,04,26,09,55,9.40
2023,04,26,09,56,9.40
2023,04,26,09,57,9.40
2023,04,26,09,58,9.40
2023,04,26,09,59,9.30
2023,04,26,10,00,9.30
2023,04,26,10,01,9.30
2023,04,26,10,02,9.30
2023,04,26,10,03,9.30
2023,04,26,10,04,9.30
2023,04,26,10,05,9.30
2023,04,26,10,06,9.30
2023,04,26,10,07,9.30
2023,04,26,10,08,9.30
2023,04,26,10,09,9.30
2023,04,26,10,10,9.30
2023,04,26,10,11,9.30
2023,04,26,10,12,9.40
2023,04,26,10,13,9.40
2023,04,26,10,14,9.40
2023,04,26,10,15,9.40
2023,04,26,10,16,9.50
2023,04,26,10,17,9.50
2023,04,26,10,18,9.60
2023,04,26,10,19,9.60
2023,04,26,10,20,9.60
2023,04,26,10,21,9.50
2023,04,26,10,22,9.50
2023,04,26,10,23,9.50
2023,04,26,10,24,9.50
2023,04,26,10,25,9.50
2023,04,26,10,26,9.40
2023,04,26,10,27,9.30
2023,04,26,10,28,9.20
2023,04,26,10,29,9.10
2023,04,26,10,30,9.10
2023,04,26,10,31,9.00
2023,04,26,10,32,8.90
2023,04,26,10,33,8.80
2023,04,26,10,34,8.80
2023,04,26,10,35,8.80
2023,04,26,10,36,8.70
2023,04,26,10,37,8.70
2023,04,26,10,38,8.70
2023,04,26,10,39,8.80
2023,04,26,10,40,8.80
2023,04,26,10,41,8.80
2023,04,26,10,42,8.90
2023,04,26,10,43,8.90
2023,04,26,10,44,9.00
2023,04,26,10,45,9.10
2023,04,26,10,46,9.20
2023,04,26,10,47,9.20
2023,04,26,10,48,9.30
2023,04,26,10,49,9.30
2023,04,26,10,50,9.30
2023,04,26,10,51,9.30
2023,04,26,10,52,9.30
2023,04,26,10,53,9.30
2023,04,26,10,54,9.20
2023,04,26,10,55,9.10
2023,04,26,10,56,9.00
2023,04,26,10,57,9.00
2023,04,26,10,58,8.90
2023,04,26,10,59,8.90
2023,04,26,11,00,9.00
2023,04,26,11,01,9.00
2023,04,26,11,02,9.00
2023,04,26,11,03,9.00
2023,04,26,11,04,9.00
2023,04,26,11,05,9.10
2023,04,26,11,06,9.20
2023,04,26,11,07,9.30
2023,04,26,11,08,9.30
2023,04,26,11,09,9.30
2023,04,26,11,10,9.30
2023,04,26,11,11,9.30
2023,04,26,11,12,9.40
2023,04,26,11,13,9.40
2023,04,26,11,14,9.40
2023,04,26,11,15,9.40
2023,04,26,11,16,9.40
2023,04,26,11,17,9.40
2023,04,26,11,18,9.40
2023,04,26,11,19,9.60
2023,04,26,11,20,9.70
2023,04,26,11,21,9.70
2023,04,26,11,22,9.70
2023,04,26,11,23,9.80
2023,04,26,11,24,9.80
2023,04,26,11,25,9.90
2023,04,26,11,26,10.00
2023,04,26,11,27,10.10
2023,04,26,11,28,9.90
2023,04,26,11,29,9.80
2023,04,26,11,30,9.80
2023,04,26,11,31,9.90
2023,04,26,11,32,10.00
2023,04,26,11,33,10.00
2023,04,26,11,34,10.10
2023,04,26,11,35,10.20
2023,04,26,11,36,10.20
2023,04,26,11,37,10.20
2023,04,26,11,38,10.10
2023,04,26,11,39,9.90
2023,04,26,11,40,9.80
2023,04,26,11,41,9.90
2023,04,26,11,42,9.90
2023,04,26,11,43,9.80
2023,04,26,11,44,9.70
2023,04,26,11,45,9.70
2023,04,26,11,46,9.70
2023,04,26,11,47,9.60
2023,04,26,11,48,9.60
2023,04,26,11,49,9.60
2023,04,26,11,50,9.60
2023,04,26,11,51,9.50
2023,04,26,11,52,9.50
2023,04,26,11,53,9.50
2023,04,26,11,54,9.50
2023,04,26,11,55,9.50
2023,04,26,11,56,9.50
2023,04,26,11,57,9.50
2023,04,26,11,58,9.60
2023,04,26,11,59,9.70
2023,04,26,12,00,9.70
2023,04,26,12,01,9.80
2023,04,26,12,02,9.80
2023,04,26,12,03,9.80
2023,04,26,12,04,9.80
2023,04,26,12,05,9.80
2023,04,26,12,06,9.90
2023,04,26,12,07,10.00
2023,04,26,12,08,10.10
2023,04,26,12,09,10.20
2023,04,26,12,10,10.10
2023,04,26,12,11,10.00
2023,04,26,12,12,9.90
2023,04,26,12,13,9.90
2023,04,26,12,14,9.90
2023,04,26,12,15,9.80
2023,04,26,12,16,9.80
2023,04,26,12,17,9.80
2023,04,26,12,18,9.80
2023,04,26,12,19,9.80
2023,04,26,12,20,9.90
2023,04,26,12,21,10.00
2023,04,26,12,22,10.20
2023,04,26,12,23,10.20
2023,04,26,12,24,10.20
2023,04,26,12,25,10.20
2023,04,26,12,26,10.30
2023,04,26,12,27,10.30
2023,04,26,12,28,10.20
2023,04,26,12,29,10.20
2023,04,26,12,30,10.10
2023,04,26,12,31,10.20
2023,04,26,12,32,10.20
2023,04,26,12,33,10.30
2023,04,26,12,34,10.30
2023,04,26,12,35,10.30
2023,04,26,12,36,10.30
2023,04,26,12,37,10.40
2023,04,26,12,38,10.40
2023,04,26,12,39,10.30
2023,04,26,12,40,10.30
2023,04,26,12,41,10.30
2023,04,26,12,42,10.40
2023,04,26,12,43,10.50
2023,04,26,12,44,10.60
2023,04,26,12,45,10.60
2023,04,26,12,46,10.60
2023,04,26,12,47,10.70
2023,04,26,12,48,10.70
2023,04,26,12,49,10.80
2023,04,26,12,50,10.80
2023,04,26,12,51,10.80
2023,04,26,12,52,10.70
2023,04,26,12,53,10.60
2023,04,26,12,54,10.50
2023,04,26,12,55,10.40
2023,04,26,12,56,10.30
2023,04,26,12,57,10.30
2023,04,26,12,58,10.30
2023,04,26,12,59,10.30
2023,04,26,13,00,10.30
2023,04,26,13,01,10.30
2023,04,26,13,02,10.20
2023,04,26,13,03,10.20
2023,04,26,13,04,10.30
2023,04,26,13,05,10.40
2023,04,26,13,06,10.60
2023,04,26,13,07,10.70
2023,04,26,13,08,10.80
2023,04,26,13,09,11.00
2023,04,26,13,10,11.10
2023,04,26,13,11,11.20
2023,04,26,13,12,11.20
2023,04,26,13,13,11.10
2023,04,26,13,14,11.10
2023,04,26,13,15,11.00
2023,04,26,13,16,11.00
2023,04,26,13,17,11.00
2023,04,26,13,18,11.00
2023,04,26,13,19,11.00
2023,04,26,13,20,10.90
2023,04,26,13,21,10.80
2023,04,26,13,22,10.80
2023,04,26,13,23,10.80
2023,04,26,13,24,10.80
2023,04,26,13,25,10.80
2023,04,26,13,26,10.80
2023,04,26,13,27,10.90
2023,04,26,13,28,11.00
2023,04,26,13,29,11.10
2023,04,26,13,30,11.20
2023,04,26,13,31,11.30
2023,04,26,13,32,11.30
2023,04,26,13,33,11.30
2023,04,26,13,34,11.50
2023,04,26,13,35,11.60
2023,04,26,13,36,11.80
2023,04,26,13,37,11.80
2023,04,26,13,38,11.90
2023,04,26,13,39,11.90
2023,04,26,13,40,12.00
2023,04,26,13,41,12.10
2023,04,26,13,42,12.20
2023,04,26,13,43,12.30
2023,04,26,13,44,12.40
2023,04,26,13,45,12.40
2023,04,26,13,46,12.40
2023,04,26,13,47,12.50
2023,04,26,13,48,12.50
2023,04,26,13,49,12.60
2023,04,26,13,50,12.70
2023,04,26,13,51,12.60
2023,04,26,13,52,12.50
2023,04,26,13,53,12.50
2023,04,26,13,54,12.50
2023,04,26,13,55,12.50
2023,04,26,13,56,12.50
2023,04,26,13,57,12.50
2023,04,26,13,58,12.50
2023,04,26,13,59,12.50
2023,04,26,14,00,12.50
2023,04,26,14,01,12.60
2023,04,26,14,02,12.50
2023,04,26,14,03,12.50
2023,04,26,14,04,12.50
2023,04,26,14,05,12.40
2023,04,26,14,06,12.40
2023,04,26,14,07,12.50
2023,04,26,14,08,12.50
2023,04,26,14,09,12.50
2023,04,26,14,10,12.60
2023,04,26,14,11,12.60
2023,04,26,14,12,12.70
2023,04,26,14,13,12.80
2023,04,26,14,14,12.80
2023,04,26,14,15,12.80
2023,04,26,14,16,12.90
2023,04,26,14,17,12.90
2023,04,26,14,18,12.90
2023,04,26,14,19,12.90
2023,04,26,14,20,12.90
2023,04,26,14,21,12.90
2023,04,26,14,22,12.90
2023,04,26,14,23,13.00
2023,04,26,14,24,13.00
2023,04,26,14,25,13.10
2023,04,26,14,26,13.10
2023,04,26,14,27,13.00
2023,04,26,14,28,12.90
2023,04,26,14,29,12.80
2023,04,26,14,30,12.60
2023,04,26,14,31,12.50
2023,04,26,14,32,12.50
2023,04,26,14,33,12.40
2023,04,26,14,34,12.30
2023,04,26,14,35,12.30
2023,04,26,14,36,12.30
2023,04,26,14,37,12.30
2023,04,26,14,38,12.30
2023,04,26,14,39,12.40
2023,04,26,14,40,12.40
2023,04,26,14,41,12.50
2023,04,26,14,42,12.50
2023,04,26,14,43,12.50
2023,04,26,14,44,12.50
2023,04,26,14,45,12.40
2023,04,26,14,46,12.40
2023,04,26,14,47,12.40
2023,04,26,14,48,12.30
2023,04,26,14,49,12.30
2023,04,26,14,50,12.40
2023,04,26,14,51,12.40
2023,04,26,14,52,12.40
2023,04,26,14,53,12.40
2023,04,26,14,54,12.40
2023,04,26,14,55,12.40
2023,04,26,14,56,12.40
2023,04,26,14,57,12.50
2023,04,26,14,58,12.50
2023,04,26,14,59,12.50
2023,04,26,15,00,12.60
2023,04,26,15,01,12.60
2023,04,26,15,02,12.60
2023,04,26,15,03,12.70
2023,04,26,15,04,12.70
2023,04,26,15,05,12.70
2023,04,26,15,06,12.80
2023,04,26,15,07,12.90
2023,04,26,15,08,12.90
2023,04,26,15,09,13.00
2023,04,26,15,10,13.00
2023,04,26,15,11,13.10
2023,04,26,15,12,13.10
2023,04,26,15,13,13.20
2023,04,26,15,14,13.20
2023,04,26,15,15,13.20
2023,04,26,15,16,13.30
2023,04,26,15,17,13.30
2023,04,26,15,18,13.40
2023,04,26,15,19,13.50
2023,04,26,15,20,13.50
2023,04,26,15,21,13.60
2023,04,26,15,22,13.60
2023,04,26,15,23,13.70
2023,04,26,15,24,13.70
2023,04,26,15,25,13.80
2023,04,26,15,26,13.80
2023,04,26,15,27,13.80
2023,04,26,15,28,13.90
2023,04,26,15,29,13.90
2023,04,26,15,30,13.90
2023,04,26,15,31,13.90
2023,04,26,15,32,13.90
2023,04,26,15,33,14.00
2023,04,26,15,34,14.10
2023,04,26,15,35,14.10
2023,04,26,15,36,14.20
2023,04,26,15,37,14.30
2023,04,26,15,38,14.40
2023,04,26,15,39,14.50
2023,04,26,15,40,14.60
2023,04,26,15,41,14.70
2023,04,26,15,42,14.80
2023,04,26,15,43,14.90
2023,04,26,15,44,15.00
2023,04,26,15,45,15.10
2023,04,26,15,46,15.20
2023,04,26,15,47,15.30
2023,04,26,15,48,15.40
2023,04,26,15,49,15.50
2023,04,26,15,50,15.60
2023,04,26,15,51,15.60
2023,04,26,15,52,15.60
2023,04,26,15,53,15.60
2023,04,26,15,54,15.60
2023,04,26,15,55,15.60
2023,04,26,15,56,15.50
2023,04,26,15,57,15.60
2023,04,26,15,58,15.60
2023,04,26,15,59,15.60
2023,04,26,16,00,15.60
2023,04,26,16,01,15.60
2023,04,26,16,02,15.60
2023,04,26,16,03,15.70
2023,04,26,16,04,15.70
2023,04,26,16,05,15.90
2023,04,26,16,06,16.10
2023,04,26,16,07,16.30
2023,04,26,16,08,16.60
2023,04,26,16,09,16.80
2023,04,26,16,10,16.90
2023,04,26,16,11,17.10
2023,04,26,16,12,17.30
2023,04,26,16,13,17.30
2023,04,26,16,14,17.40
2023,04,26,16,15,17.50
2023,04,26,16,16,17.60
2023,04,26,16,17,17.60
2023,04,26,16,18,17.60
2023,04,26,16,19,17.70
2023,04,26,16,20,17.80
2023,04,26,16,21,17.70
2023,04,26,16,22,17.70
2023,04,26,16,23,17.70
2023,04,26,16,24,17.70
2023,04,26,16,25,17.70
2023,04,26,16,26,17.70
2023,04,26,16,27,17.70
2023,04,26,16,28,17.60
2023,04,26,16,29,17.60
2023,04,26,16,30,17.50
2023,04,26,16,31,17.30
2023,04,26,16,32,17.30
2023,04,26,16,33,17.20
2023,04,26,16,34,17.20
2023,04,26,16,35,17.10
2023,04,26,16,36,17.10
2023,04,26,16,37,17.00
2023,04,26,16,38,16.90
2023,04,26,16,39,16.90
2023,04,26,16,40,16.80
2023,04,26,16,41,16.70
2023,04,26,16,42,16.50
2023,04,26,16,43,16.40
2023,04,26,16,44,16.30
2023,04,26,16,45,16.20
2023,04,26,16,46,16.20
2023,04,26,16,47,16.10
2023,04,26,16,48,16.10
2023,04,26,16,49,16.00
2023,04,26,16,50,15.90
2023,04,26,16,51,15.80
2023,04,26,16,52,15.70
2023,04,26,16,53,15.60
2023,04,26,16,54,15.50
2023,04,26,16,55,15.40
2023,04,26,16,56,15.30
2023,04,26,16,57,15.20
2023,04,26,16,58,15.20
2023,04,26,16,59,15.20
2023,04,26,17,00,15.20
2023,04,26,17,01,15.20
2023,04,26,17,02,15.20
2023,04,26,17,03,15.30
2023,04,26,17,04,15.30
2023,04,26,17,05,15.40
2023,04,26,17,06,15.40
2023,04,26,17,07,15.50
2023,04,26,17,08,15.50
2023,04,26,17,09,15.50
2023,04,26,17,10,15.50
2023,04,26,17,11,15.50
2023,04,26,17,12,15.50
2023,04,26,17,13,15.50
2023,04,26,17,14,15.40
2023,04,26,17,15,15.40
2023,04,26,17,16,15.40
2023,04,26,17,17,15.30
2023,04,26,17,18,15.20
2023,04,26,17,19,15.10
2023,04,26,17,20,15.00
2023,04,26,17,21,15.00
2023,04,26,17,22,15.00
2023,04,26,17,23,15.00
2023,04,26,17,24,14.90
2023,04,26,17,25,14.90
2023,04,26,17,26,14.90
2023,04,26,17,27,14.80
2023,04,26,17,28,14.80
2023,04,26,17,29,14.80
2023,04,26,17,30,14.80
2023,04,26,17,31,14.80
2023,04,26,17,32,14.80
2023,04,26,17,33,14.80
2023,04,26,17,34,14.80
2023,04,26,17,35,14.80
2023,04,26,17,36,14.80
2023,04,26,17,37,14.90
2023,04,26,17,38,14.90
2023,04,26,17,39,15.00
2023,04,26,17,40,15.00
2023,04,26,17,41,15.00
2023,04,26,17,42,15.00
2023,04,26,17,43,15.00
2023,04,26,17,44,15.00
2023,04,26,17,45,15.00
2023,04,26,17,46,15.00
2023,04,26,17,47,15.00
2023,04,26,17,48,15.00
2023,04,26,17,49,15.00
2023,04,26,17,50,15.00
2023,04,26,17,51,15.00
2023,04,26,17,52,15.00
2023,04,26,17,53,15.00